This is the latest recevied weather packets stored in our database for station/object VA7IS. If no packets are shown the sender has not sent any weather packets the latest 10 day(s).
| Time | Temp. | Humidity | Pressure | Rain* | Wind** | Luminosity | Snow |
|---|---|---|---|---|---|---|---|
| 1777642804 | 10.56° C | 33% | 1015.3 hPa | 0 mm | - | - | - |
| 1777642504 | 10.56° C | 42% | 1015.2 hPa | 0 mm | - | - | - |
| 1777640103 | 11.11° C | 49% | 1015 hPa | 0 mm | - | - | - |
| 1777638003 | 11.11° C | 52% | 1015.1 hPa | 0 mm | - | - | - |
| 1777637704 | 11.11° C | 52% | 1015.1 hPa | 0 mm | - | - | - |
| 1777637403 | 11.11° C | 51% | 1015.1 hPa | 0 mm | - | - | - |
| 1777635004 | 11.11° C | 47% | 1014.9 hPa | 0 mm | - | - | - |
| 1777634704 | 11.11° C | 48% | 1014.9 hPa | 0 mm | - | - | - |
| 1777632003 | 12.22° C | 52% | 1014.9 hPa | 0 mm | - | - | - |
| 1777630504 | 12.22° C | 57% | 1015.1 hPa | 0 mm | - | - | - |
| 1777629904 | 12.22° C | 57% | 1015.1 hPa | 0 mm | - | - | - |
| 1777627204 | 12.22° C | 56% | 1015.2 hPa | 0 mm | - | - | - |
| 1777626604 | 12.22° C | 56% | 1015.2 hPa | 0 mm | - | - | - |
| 1777626305 | 12.22° C | 56% | 1015.2 hPa | 0 mm | - | - | - |
| 1777622705 | 13.33° C | 56% | 1014.9 hPa | 0 mm | - | - | - |
| 1777618204 | 13.33° C | 55% | 1014.7 hPa | 0 mm | - | - | - |
| 1777608605 | 15.56° C | 56% | 1014.8 hPa | 0 mm | - | - | - |
| 1777607404 | 15.56° C | 56% | 1014.7 hPa | 0 mm | - | - | - |
| 1777604704 | 17.22° C | 55% | 1014.5 hPa | 0 mm | - | - | - |
| 1777603505 | 17.78° C | 54% | 1014.5 hPa | 0 mm | - | - | - |
| 1777603204 | 18.33° C | 54% | 1014.5 hPa | 0 mm | - | - | - |
| 1777602904 | 18.33° C | 54% | 1014.5 hPa | 0 mm | - | - | - |
| 1777602304 | 18.89° C | 54% | 1014.6 hPa | 0 mm | - | - | - |
| 1777601705 | 20° C | 54% | 1014.6 hPa | 0 mm | - | - | - |
| 1777599004 | 21.67° C | 49% | 1015 hPa | 0 mm | - | - | - |
* Rain latest hour (hover to see other rain measurements)
** Current wind speed in m/s (hover to see current wind gust speed)